Amelia, Virginia, United States
Lat: 37.37N, Lon: 77.92W
Wx Zone: VAZ068
Local Info
Past Weather Observations for Friday, January 23, 2015

NOTE: This archive is for the closest National Weather Service station to Amelia. Information may differ from the station used for current weather conditions.

Click here for Long-term Archive

Time Weather Temperature Dewpoint Humidity Pressure Winds Precip Visibility
23:55
Overcast
Rain
37°F / 3°C 36°F / 2°C 93% 29.8 in
(1009 mb)
N 4.6 mph
(N 7 kph)
0.09 in
(2.29 mm)
2SM
23:35
Overcast
Light Rain
37°F / 3°C 36°F / 2°C 93% 29.83 in
(1010 mb)
N 5.8 mph
(N 9 kph)
0.05 in
(1.27 mm)
2 1/2SM
23:15
Overcast
Light Rain
37°F / 3°C 37°F / 3°C 100% 29.86 in
(1011 mb)
NW 3.5 mph
(NW 6 kph)
0.03 in
(0.76 mm)
3SM
22:55
Overcast
Light Rain
37°F / 3°C 36°F / 2°C 93% 29.86 in
(1011 mb)
NE 5.8 mph
(NE 9 kph)
0.06 in
(1.52 mm)
3SM
22:35
Overcast
Rain
37°F / 3°C 36°F / 2°C 93% 29.89 in
(1012 mb)
ENE 6.9 mph
(ENE 11 kph)
0.03 in
(0.76 mm)
4SM
22:15
Overcast
Fog And Mist
37°F / 3°C 36°F / 2°C 93% 29.89 in
(1012 mb)
ENE 8.1 mph
(ENE 13 kph)
0.01 in
(0.25 mm)
5SM
21:55
Overcast
Light Rain
37°F / 3°C 36°F / 2°C 93% 29.92 in
(1013 mb)
ENE 6.9 mph
(ENE 11 kph)
0.06 in
(1.52 mm)
3SM
21:35
Overcast
Drizzle
37°F / 3°C 36°F / 2°C 93% 29.95 in
(1014 mb)
E 9.2 mph
(E 15 kph)
0.04 in
(1.02 mm)
3SM
21:15
Overcast
Light Rain
37°F / 3°C 37°F / 3°C 100% 29.95 in
(1014 mb)
ENE 8.1 mph
(ENE 13 kph)
0.02 in
(0.51 mm)
2 1/2SM
20:55
Overcast
Light Rain
37°F / 3°C 37°F / 3°C 100% 29.98 in
(1015 mb)
ENE 8.1 mph
(ENE 13 kph)
0.04 in
(1.02 mm)
2 1/2SM
20:35
Overcast
Light Rain
37°F / 3°C 37°F / 3°C 100% 29.98 in
(1015 mb)
ENE 9.2 mph
(ENE 15 kph)
0.02 in
(0.51 mm)
3SM
20:15
Overcast
Light Rain
37°F / 3°C 37°F / 3°C 100% 30.01 in
(1016 mb)
ENE 10.4 mph
(ENE 17 kph)
0.01 in
(0.25 mm)
3SM
19:55
Overcast
Light Rain
39°F / 4°C 37°F / 3°C 93% 30.04 in
(1017 mb)
ENE 9.2 mph
(ENE 15 kph)
0.03 in
(0.76 mm)
4SM
19:35
Overcast
Light Rain
39°F / 4°C 37°F / 3°C 93% 30.04 in
(1017 mb)
ENE 10.4 mph
(ENE 17 kph)
0.03 in
(0.76 mm)
4SM
19:15
Overcast
Light Rain
39°F / 4°C 37°F / 3°C 93% 30.06 in
(1018 mb)
NE 8.1 mph
(NE 13 kph)
0.01 in
(0.25 mm)
4SM
18:55
Overcast
Drizzle
39°F / 4°C 37°F / 3°C 93% 30.06 in
(1018 mb)
NE 9.2 mph
(NE 15 kph)
0.05 in
(1.27 mm)
4SM
18:35
Overcast
Light Rain
39°F / 4°C 37°F / 3°C 93% 30.09 in
(1019 mb)
NE 6.9 mph
(NE 11 kph)
0.04 in
(1.02 mm)
4SM
18:15
Overcast
Light Rain
39°F / 4°C 37°F / 3°C 93% 30.12 in
(1020 mb)
NNE 3.5 mph
(NNE 6 kph)
0.02 in
(0.51 mm)
4SM
17:55
Overcast
Light Rain
39°F / 4°C 37°F / 3°C 93% 30.12 in
(1020 mb)
N 3.5 mph
(N 6 kph)
0.03 in
(0.76 mm)
5SM
17:35
Overcast
Light Rain
39°F / 4°C 37°F / 3°C 93% 30.12 in
(1020 mb)
NE 5.8 mph
(NE 9 kph)
0.03 in
(0.76 mm)
5SM
17:15
Overcast
Light Rain
39°F / 4°C 37°F / 3°C 93% 30.15 in
(1021 mb)
Calm 0.02 in
(0.51 mm)
7SM
16:55
Overcast
Light Rain
39°F / 4°C 37°F / 3°C 93% 30.15 in
(1021 mb)
Calm 0.01 in
(0.25 mm)
7SM
16:35
Overcast
Light Rain
39°F / 4°C 37°F / 3°C 93% 30.15 in
(1021 mb)
Calm - 7SM
16:15
Overcast
Light Rain
41°F / 5°C 37°F / 3°C 87% 30.15 in
(1021 mb)
Calm - 10SM
15:55
Overcast
Drizzle
41°F / 5°C 37°F / 3°C 87% 30.18 in
(1022 mb)
Calm 0.01 in
(0.25 mm)
7SM
15:35
Overcast
Light Rain
41°F / 5°C 36°F / 2°C 81% 30.18 in
(1022 mb)
Calm 0.01 in
(0.25 mm)
7SM
15:15
Overcast
Light Rain
41°F / 5°C 36°F / 2°C 81% 30.18 in
(1022 mb)
SE 3.5 mph
(SE 6 kph)
- 7SM
14:55
Overcast
Light Rain
41°F / 5°C 34°F / 1°C 76% 30.21 in
(1023 mb)
Calm - 7SM
14:35
Overcast
Light Rain
43°F / 6°C 32°F / 0°C 66% 30.21 in
(1023 mb)
Calm - 10SM
14:15
Overcast
Light Rain
43°F / 6°C 30°F / -1°C 61% 30.21 in
(1023 mb)
SE 3.5 mph
(SE 6 kph)
- 10SM
13:55
Overcast
43°F / 6°C 28°F / -2°C 57% 30.24 in
(1024 mb)
Calm - 10SM
13:35
Overcast
43°F / 6°C 28°F / -2°C 57% 30.24 in
(1024 mb)
Calm - 10SM
13:15
Overcast
43°F / 6°C 28°F / -2°C 57% 30.27 in
(1025 mb)
Calm - 10SM
12:55
Overcast
43°F / 6°C 28°F / -2°C 57% 30.27 in
(1025 mb)
SSE 3.5 mph
(SSE 6 kph)
- 10SM
12:35
Overcast
43°F / 6°C 28°F / -2°C 57% 30.27 in
(1025 mb)
Calm - 10SM
12:15
Overcast
41°F / 5°C 28°F / -2°C 61% 30.3 in
(1026 mb)
S 4.6 mph
(S 7 kph)
- 10SM
11:55
Overcast
41°F / 5°C 28°F / -2°C 61% 30.3 in
(1026 mb)
Calm - 10SM
11:35
Overcast
41°F / 5°C 28°F / -2°C 61% 30.33 in
(1027 mb)
Calm - 10SM
11:15
Overcast
41°F / 5°C 28°F / -2°C 61% 30.33 in
(1027 mb)
Calm - 10SM
10:55
Overcast
41°F / 5°C 28°F / -2°C 61% 30.36 in
(1028 mb)
Calm - 10SM
10:35
Overcast
39°F / 4°C 28°F / -2°C 65% 30.33 in
(1027 mb)
ESE 4.6 mph
(ESE 7 kph)
- 10SM
10:15
Overcast
39°F / 4°C 28°F / -2°C 65% 30.36 in
(1028 mb)
SE 4.6 mph
(SE 7 kph)
- 10SM
09:55
Overcast
39°F / 4°C 30°F / -1°C 70% 30.36 in
(1028 mb)
Calm - 10SM
09:35
Overcast
39°F / 4°C 30°F / -1°C 70% 30.36 in
(1028 mb)
Calm - 10SM
09:15
Overcast
37°F / 3°C 30°F / -1°C 75% 30.36 in
(1028 mb)
Calm - 10SM
08:55
Overcast
37°F / 3°C 32°F / 0°C 81% 30.36 in
(1028 mb)
Calm - 10SM
08:35
Overcast
36°F / 2°C 32°F / 0°C 87% 30.36 in
(1028 mb)
Calm - 10SM
08:15
Overcast
36°F / 2°C 32°F / 0°C 87% 30.36 in
(1028 mb)
Calm - 10SM
07:55
Overcast
36°F / 2°C 32°F / 0°C 87% 30.36 in
(1028 mb)
Calm - 10SM
07:35
Overcast
36°F / 2°C 32°F / 0°C 87% 30.36 in
(1028 mb)
NE 3.5 mph
(NE 6 kph)
- 10SM
07:15
Overcast
34°F / 1°C 32°F / 0°C 93% 30.36 in
(1028 mb)
Calm - 10SM
06:55
Overcast
34°F / 1°C 32°F / 0°C 93% 30.39 in
(1029 mb)
Calm - 10SM
06:35
Overcast
34°F / 1°C 32°F / 0°C 93% 30.39 in
(1029 mb)
Calm - 10SM
06:15
Overcast
32°F / 0°C 32°F / 0°C 100% 30.39 in
(1029 mb)
Calm - 10SM
05:55
Partly Cloudy
32°F / 0°C 32°F / 0°C 100% 30.39 in
(1029 mb)
Calm - 10SM
05:35
Clear
34°F / 1°C 32°F / 0°C 93% 30.39 in
(1029 mb)
Calm - 10SM
05:15
Clear
32°F / 0°C 32°F / 0°C 100% 30.39 in
(1029 mb)
SW 3.5 mph
(SW 6 kph)
- 10SM
04:55
Clear
32°F / 0°C 32°F / 0°C 100% 30.39 in
(1029 mb)
Calm - 10SM
04:35
Clear
32°F / 0°C 32°F / 0°C 100% 30.39 in
(1029 mb)
Calm - 10SM
04:15
Clear
32°F / 0°C 32°F / 0°C 100% 30.39 in
(1029 mb)
Calm - 10SM
03:55
Clear
32°F / 0°C 32°F / 0°C 100% 30.39 in
(1029 mb)
Calm - 7SM
03:35
Clear
32°F / 0°C 32°F / 0°C 100% 30.39 in
(1029 mb)
Calm - 10SM
03:15
Clear
32°F / 0°C 30°F / -1°C 93% 30.39 in
(1029 mb)
Calm - 10SM
02:55
Clear
32°F / 0°C 30°F / -1°C 93% 30.39 in
(1029 mb)
Calm - 10SM
02:35
Clear
30°F / -1°C 30°F / -1°C 100% 30.39 in
(1029 mb)
Calm - 10SM
02:15
Clear
30°F / -1°C 28°F / -2°C 93% 30.42 in
(1030 mb)
Calm - 10SM
01:55
Clear
28°F / -2°C 27°F / -3°C 93% 30.42 in
(1030 mb)
Calm - 10SM
01:35
Clear
28°F / -2°C 27°F / -3°C 93% 30.39 in
(1029 mb)
Calm - 10SM
01:15
Clear
27°F / -3°C 27°F / -3°C 100% 30.39 in
(1029 mb)
Calm - 10SM
00:55
Clear
27°F / -3°C 27°F / -3°C 100% 30.39 in
(1029 mb)
SW 3.5 mph
(SW 6 kph)
- 10SM
00:35
Clear
27°F / -3°C 25°F / -4°C 93% 30.39 in
(1029 mb)
SW 3.5 mph
(SW 6 kph)
- 7SM
00:15
Clear
27°F / -3°C 27°F / -3°C 100% 30.39 in
(1029 mb)
Calm - 10SM
Time Weather Temperature Dewpoint Humidity Pressure Winds Precip Visibility


Weather for websites

WeatherForYou.com, LLC is not responsible for any damages or problems caused by this service. Current weather conditions are obtained from the closest station including government and personal stations which may have varying degrees of accuracy. Weather forecasts are derived from the NOAA NDFD. Like all things, this site belongs to Jesus Christ... He just trusts me to maintain it. If you have any questions or comments email webmaster@weatherforyou.com

Copyright © 2015, WeatherForYou.com LLC. All rights reserved.